Regional Weather Roundup
Issued by NWS

Home | Current Version | Previous Version | Graphics & Text | Print | Product List | Glossary On
Versions: 1 2 3 4 5 6 7 8 9 10 11 12 13 14 15 16 17 18 19 20 21 22 23 24 25 26 27 28 29 30 31 32 33 34 35 36 37 38 39 40 41 42 43 44 45 46 47 48 49 50
000
ASUS43 KLMK 150502
RWRKY
KENTUCKY REGIONAL WEATHER ROUNDUP
NATIONAL WEATHER SERVICE LOUISVILLE KY
1200 AM EST FRI DEC 15 2017

NOTE "FAIR" INDICATES FEW OR NO CLOUDS BELOW 12,000 FEET
WITH NO SIGNIFICANT WEATHER AND/OR OBSTRUCTIONS TO VISIBILITY.

KYZ001>023-026-027-061>063-070>075-150600-
WESTERN AND SOUTH CENTRAL KENTUCKY

CITY           SKY/WX    TMP DP  RH WIND       PRES   REMARKS
PADUCAH        CLOUDY    33  20  58 N5        30.12F WCI  29
HENDERSON      CLOUDY    31  24  75 SW5       30.13S WCI  26
OWENSBORO      CLOUDY    32  23  69 NW7       30.12S WCI  26
HOPKINSVILLE   CLOUDY    32  21  64 NW5       30.10S WCI  27
BOWLING GREEN  CLOUDY    33  22  63 NW6       30.10F WCI  28
GLASGOW        NOT AVBL
$$

KYZ024-025-028>034-038-045-046-053-150600-
NORTH CENTRAL KENTUCKY

CITY           SKY/WX    TMP DP  RH WIND       PRES   REMARKS
LOUISVILLE/SDF MOCLDY    27  17  66 CALM      30.10R
LOUISVILLE/LOU CLEAR     25  17  72 E3        30.11R
FORT KNOX      CLOUDY    28  18  64 CALM      30.07R
$$

KYZ035>037-039>044-047>052-055>060-089>105-150600-
NORTHEAST KENTUCKY

CITY           SKY/WX    TMP DP  RH WIND       PRES   REMARKS
LEXINGTON      CLOUDY    25  18  74 E6        30.07R WCI  18
COVINGTON      CLOUDY    25  17  72 NE3       30.06F
FRANKFORT      CLOUDY    27  16  63 CALM      30.07S
$$

KYZ054-064>069-076>088-106>120-150600-
SOUTHEAST KENTUCKY

CITY           SKY/WX    TMP DP  RH WIND       PRES   REMARKS
JACKSON        CLOUDY    30  21  69 CALM      30.03S
LONDON         CLOUDY    32  21  64 N3        30.03S
SOMERSET       NOT AVBL
MIDDLESBORO    CLOUDY    27  24  87 CALM      30.05R
MONTICELLO     CLOUDY    33  24  69 N14       30.07S WCI  23
$$





USA.gov is the U.S. government's official web portal to all federal, state and local government web resources and services.